Location: Newark
(15.4608°S, 41.1635°W)
Time: 19:32:44
(UTC+00:00)

S-56A Canister/Altair - Visible Passes

Search period start: 04 March 2021 00:00
Search period end: 14 March 2021 00:00
Orbit: 631 x 2501 km, 38.9° (Epoch: 03 March)

Date Brightness Start Highest point End Pass type
(mag) Time Alt. Az. Time Alt. Az. Time Alt. Az.
05 Mar 10.9 23:18:04 10° N 23:19:06 12° N 23:19:06 12° N visible
06 Mar 10.6 22:45:24 10° N 22:48:46 14° NNE 22:48:46 14° NNE visible
07 Mar 10.5 22:12:57 10° N 22:17:34 13° NE 22:18:29 13° NE visible
08 Mar 10.8 00:13:49 10° NW 00:15:58 17° NNW 00:15:58 17° NNW visible
08 Mar 10.6 21:40:56 10° NNE 21:44:15 11° NE 21:47:18 10° NE visible
08 Mar 10.2 23:40:25 10° NNW 23:45:46 28° NNW 23:45:46 28° NNW visible
09 Mar 9.8 08:09:42 10° S 08:12:48 17° SSE 08:16:19 10° ESE visible
09 Mar 9.7 23:07:03 10° NNW 23:15:36 38° N 23:15:36 38° N visible
10 Mar 9.9 07:37:58 10° S 07:40:05 13° SSE 07:42:21 10° ESE visible
10 Mar 9.5 22:33:42 10° NNW 22:44:33 37° NE 22:45:30 36° NE visible
11 Mar 10.7 00:39:40 10° WNW 00:42:59 21° WNW 00:42:59 21° WNW visible
11 Mar 9.7 22:00:23 10° NNW 22:11:20 33° NE 22:15:24 25° ENE visible
12 Mar 9.8 00:05:51 10° WNW 00:12:53 40° WNW 00:12:53 40° WNW visible
12 Mar 10.2 21:27:09 10° NNW 21:38:03 30° NE 21:45:18 13° E visible
12 Mar 9.0 23:32:03 10° NW 23:42:47 73° WNW 23:42:47 73° WNW visible
13 Mar 8.5 08:02:02 10° SW 08:06:19 41° SE 08:11:31 10° ENE visible
13 Mar 8.8 22:58:17 10° NW 23:10:51 84° NE 23:12:40 64° ESE visible
